Private Wetterstation Wechselburg
Wetterdaten: Mittwoch, 28.07.2010
Datum Zeit Temp. +2m Bodentemp. Temp.+5cm Temp. Wind Windchill X Diff Temp. Feuchte +2m Feuchte +5cm Sonnenschein Luftdruck Regen Wind Richtung Richtung Sonnenschein UV Taupunkt Windchill Windben
28.07.2010 00:00 17,2 C 20,3 C 17,6 C 16,4 C 14,7 C 0,0 C 84 % 80 % 0 % 1014,4 hPa 0,0 l/m 0,0 km/h (0 Bft) O-NO 67 0 min 0,0 UV-I 14,5 C 14,7 C 0,0 km/h (0 Bft)
28.07.2010 00:08 17,3 C 20,3 C 17,6 C 16,4 C 14,7 C 0,0 C 85 % 80 % 0 % 1014,4 hPa 0,0 l/m 0,0 km/h (0 Bft) N 0 0 min 0,0 UV-I 14,8 C 14,7 C 0,0 km/h (0 Bft)
28.07.2010 00:10 17,3 C 20,3 C 17,6 C 16,4 C 14,7 C 0,0 C 85 % 80 % 0 % 1014,4 hPa 0,0 l/m 0,0 km/h (0 Bft) O-NO 67 0 min 0,0 UV-I 14,8 C 14,7 C 0,0 km/h (0 Bft)
28.07.2010 00:15 17,2 C 20,2 C 17,6 C 16,4 C 14,9 C 0,0 C 84 % 80 % 0 % 1014,4 hPa 0,0 l/m 0,0 km/h (0 Bft) S-SO 157 0 min 0,0 UV-I 14,5 C 14,9 C 0,0 km/h (0 Bft)
28.07.2010 00:20 17,2 C 20,2 C 17,6 C 16,5 C 15,0 C 0,0 C 84 % 80 % 0 % 1014,5 hPa 0,0 l/m 0,0 km/h (0 Bft) S 180 0 min 0,0 UV-I 14,5 C 15,0 C 0,0 km/h (0 Bft)
28.07.2010 00:25 17,2 C 20,2 C 17,6 C 16,5 C 15,1 C 0,0 C 84 % 80 % 0 % 1014,5 hPa 0,0 l/m 0,0 km/h (0 Bft) O 90 0 min 0,0 UV-I 14,5 C 15,1 C 0,0 km/h (0 Bft)
28.07.2010 00:30 17,2 C 20,2 C 17,6 C 16,5 C 15,0 C 0,0 C 84 % 80 % 0 % 1014,5 hPa 0,0 l/m 0,0 km/h (0 Bft) O 90 0 min 0,0 UV-I 14,5 C 15,0 C 0,0 km/h (0 Bft)
28.07.2010 00:35 17,2 C 20,1 C 17,6 C 16,5 C 15,0 C 0,0 C 84 % 80 % 0 % 1014,5 hPa 0,0 l/m 0,0 km/h (0 Bft) SW 225 0 min 0,0 UV-I 14,5 C 15,0 C 0,0 km/h (0 Bft)
28.07.2010 00:40 17,2 C 20,1 C 17,6 C 16,5 C 15,0 C 0,0 C 84 % 80 % 0 % 1014,6 hPa 0,0 l/m 0,0 km/h (0 Bft) S 180 0 min 0,0 UV-I 14,5 C 15,0 C 0,0 km/h (0 Bft)
28.07.2010 00:45 17,2 C 20,1 C 17,6 C 16,4 C 14,9 C 0,0 C 84 % 80 % 0 % 1014,6 hPa 0,0 l/m 0,0 km/h (0 Bft) O 90 0 min 0,0 UV-I 14,5 C 14,9 C 0,0 km/h (0 Bft)
28.07.2010 00:50 17,2 C 20,1 C 17,6 C 16,4 C 14,8 C 0,0 C 84 % 80 % 0 % 1014,6 hPa 0,0 l/m 0,0 km/h (0 Bft) O 90 0 min 0,0 UV-I 14,5 C 14,8 C 0,0 km/h (0 Bft)
28.07.2010 00:55 17,2 C 20,1 C 17,6 C 16,4 C 14,7 C 0,0 C 84 % 80 % 0 % 1014,6 hPa 0,0 l/m 0,0 km/h (0 Bft) O 90 0 min 0,0 UV-I 14,5 C 14,7 C 0,0 km/h (0 Bft)
28.07.2010 01:00 17,0 C 20,1 C 17,6 C 16,2 C 14,5 C 0,0 C 84 % 80 % 0 % 1014,6 hPa 0,0 l/m 0,0 km/h (0 Bft) O 90 0 min 0,0 UV-I 14,3 C 14,5 C 0,0 km/h (0 Bft)
28.07.2010 01:10 16,8 C 20,1 C 17,6 C 16,0 C 14,3 C 0,0 C 84 % 80 % 0 % 1014,6 hPa 0,0 l/m 0,0 km/h (0 Bft) O-SO 112 0 min 0,0 UV-I 14,1 C 14,3 C 0,0 km/h (0 Bft)
28.07.2010 01:15 16,8 C 20,1 C 17,6 C 15,9 C 14,2 C 0,0 C 84 % 80 % 0 % 1014,6 hPa 0,0 l/m 0,0 km/h (0 Bft) O-NO 67 0 min 0,0 UV-I 14,1 C 14,2 C 0,0 km/h (0 Bft)
28.07.2010 01:20 16,7 C 20,1 C 17,6 C 15,9 C 14,2 C 0,0 C 84 % 80 % 0 % 1014,4 hPa 0,0 l/m 0,0 km/h (0 Bft) O-NO 67 0 min 0,0 UV-I 14,0 C 14,2 C 0,0 km/h (0 Bft)
28.07.2010 01:25 16,7 C 20,1 C 17,6 C 15,8 C 14,1 C 0,0 C 84 % 80 % 0 % 1014,4 hPa 0,0 l/m 0,0 km/h (0 Bft) SO 135 0 min 0,0 UV-I 14,0 C 14,1 C 0,0 km/h (0 Bft)
28.07.2010 01:30 16,7 C 20,0 C 17,6 C 15,8 C 14,1 C 0,0 C 84 % 80 % 0 % 1014,4 hPa 0,0 l/m 0,0 km/h (0 Bft) W-SW 247 0 min 0,0 UV-I 14,0 C 14,1 C 0,0 km/h (0 Bft)
28.07.2010 01:35 16,6 C 20,0 C 17,6 C 15,7 C 14,0 C 0,0 C 84 % 80 % 0 % 1014,4 hPa 0,0 l/m 0,0 km/h (0 Bft) S 180 0 min 0,0 UV-I 13,9 C 14,0 C 0,0 km/h (0 Bft)
28.07.2010 01:40 16,7 C 20,0 C 17,6 C 15,8 C 14,0 C 0,0 C 84 % 80 % 0 % 1014,3 hPa 0,0 l/m 0,2 km/h (0 Bft) SW 225 0 min 0,0 UV-I 14,0 C 14,0 C 1,8 km/h (1 Bft)
28.07.2010 01:45 16,6 C 20,1 C 17,6 C 15,7 C 14,0 C 0,0 C 84 % 80 % 0 % 1014,3 hPa 0,0 l/m 0,2 km/h (0 Bft) SW 225 0 min 0,0 UV-I 13,9 C 14,0 C 3,2 km/h (1 Bft)
28.07.2010 01:50 16,6 C 20,0 C 17,6 C 15,7 C 13,9 C 0,0 C 84 % 80 % 0 % 1014,3 hPa 0,0 l/m 0,2 km/h (0 Bft) S-SO 157 0 min 0,0 UV-I 13,9 C 13,9 C 0,0 km/h (0 Bft)
28.07.2010 01:55 16,5 C 20,0 C 17,6 C 15,6 C 13,9 C 0,0 C 84 % 80 % 0 % 1014,3 hPa 0,0 l/m 0,0 km/h (0 Bft) SO 135 0 min 0,0 UV-I 13,8 C 13,9 C 0,0 km/h (0 Bft)
28.07.2010 02:00 16,5 C 20,0 C 17,6 C 15,6 C 13,8 C 0,0 C 85 % 80 % 0 % 1014,2 hPa 0,0 l/m 0,0 km/h (0 Bft) SO 135 0 min 0,0 UV-I 14,0 C 13,8 C 0,0 km/h (0 Bft)
28.07.2010 02:10 16,4 C 20,0 C 17,6 C 15,5 C 13,6 C 0,0 C 85 % 80 % 0 % 1014,2 hPa 0,0 l/m 0,0 km/h (0 Bft) SO 135 0 min 0,0 UV-I 13,9 C 13,6 C 0,0 km/h (0 Bft)
28.07.2010 02:15 16,4 C 20,0 C 17,6 C 15,5 C 13,6 C 0,0 C 85 % 80 % 0 % 1014,2 hPa 0,0 l/m 0,0 km/h (0 Bft) SO 135 0 min 0,0 UV-I 13,9 C 13,6 C 0,0 km/h (0 Bft)
28.07.2010 02:20 16,5 C 20,1 C 17,6 C 15,5 C 13,6 C 0,0 C 84 % 80 % 0 % 1014,1 hPa 0,0 l/m 0,0 km/h (0 Bft) SO 135 0 min 0,0 UV-I 13,8 C 13,6 C 0,0 km/h (0 Bft)
28.07.2010 02:25 16,3 C 20,1 C 17,6 C 15,4 C 13,6 C 0,0 C 85 % 80 % 0 % 1014,1 hPa 0,0 l/m 0,2 km/h (0 Bft) S 180 0 min 0,0 UV-I 13,8 C 13,6 C 3,1 km/h (1 Bft)
28.07.2010 02:30 16,3 C 20,1 C 17,6 C 15,4 C 13,6 C 0,0 C 85 % 80 % 0 % 1014,1 hPa 0,0 l/m 0,2 km/h (0 Bft) S 180 0 min 0,0 UV-I 13,8 C 13,6 C 3,1 km/h (1 Bft)
28.07.2010 02:35 16,5 C 19,9 C 17,6 C 15,7 C 14,1 C 0,0 C 85 % 80 % 0 % 1014,2 hPa 0,0 l/m 1,0 km/h (0 Bft) S 180 0 min 0,0 UV-I 14,0 C 14,1 C 3,4 km/h (1 Bft)
28.07.2010 02:40 16,5 C 19,9 C 17,6 C 15,7 C 14,1 C 0,0 C 85 % 80 % 0 % 1014,2 hPa 0,0 l/m 1,0 km/h (0 Bft) S 180 0 min 0,0 UV-I 14,0 C 14,1 C 0,0 km/h (0 Bft)
28.07.2010 02:45 16,4 C 19,8 C 17,6 C 15,8 C 14,6 C 0,0 C 85 % 80 % 0 % 1014,2 hPa 0,0 l/m 1,8 km/h (1 Bft) S-SO 157 0 min 0,0 UV-I 13,9 C 14,6 C 2,3 km/h (1 Bft)
28.07.2010 02:50 16,4 C 19,8 C 17,6 C 15,8 C 14,6 C 0,0 C 85 % 80 % 0 % 1014,2 hPa 0,0 l/m 1,8 km/h (1 Bft) S-SO 157 0 min 0,0 UV-I 13,9 C 14,6 C 2,3 km/h (1 Bft)
28.07.2010 02:55 16,4 C 19,8 C 17,6 C 15,8 C 14,7 C 0,0 C 85 % 80 % 0 % 1013,9 hPa 0,0 l/m 1,3 km/h (1 Bft) S 180 0 min 0,0 UV-I 13,9 C 14,7 C 4,3 km/h (1 Bft)
28.07.2010 03:00 16,4 C 19,8 C 17,6 C 15,8 C 14,7 C 0,0 C 85 % 80 % 0 % 1013,9 hPa 0,0 l/m 1,3 km/h (1 Bft) S 180 0 min 0,0 UV-I 13,9 C 14,7 C 2,9 km/h (1 Bft)
28.07.2010 03:10 16,4 C 19,7 C 17,6 C 15,8 C 14,5 C 0,0 C 85 % 80 % 0 % 1013,9 hPa 0,0 l/m 1,0 km/h (0 Bft) SO 135 0 min 0,0 UV-I 13,9 C 14,5 C 2,1 km/h (1 Bft)
28.07.2010 03:15 16,4 C 19,8 C 17,6 C 15,7 C 14,3 C 0,0 C 85 % 80 % 0 % 1013,9 hPa 0,0 l/m 0,6 km/h (0 Bft) S-SO 157 0 min 0,0 UV-I 13,9 C 14,3 C 2,4 km/h (1 Bft)
28.07.2010 03:20 16,4 C 19,7 C 17,6 C 15,7 C 14,2 C 0,0 C 85 % 80 % 0 % 1013,9 hPa 0,0 l/m 0,6 km/h (0 Bft) S 180 0 min 0,0 UV-I 13,9 C 14,2 C 4,2 km/h (1 Bft)
28.07.2010 03:25 16,5 C 19,7 C 17,6 C 15,8 C 14,3 C 0,0 C 84 % 80 % 0 % 1013,9 hPa 0,0 l/m 0,6 km/h (0 Bft) O-SO 112 0 min 0,0 UV-I 13,8 C 14,3 C 0,0 km/h (0 Bft)
28.07.2010 03:30 16,5 C 19,7 C 17,6 C 15,8 C 14,3 C 0,0 C 84 % 80 % 0 % 1013,9 hPa 0,0 l/m 0,6 km/h (0 Bft) O-SO 112 0 min 0,0 UV-I 13,8 C 14,3 C 0,0 km/h (0 Bft)
28.07.2010 03:35 16,4 C 19,8 C 17,6 C 15,7 C 14,2 C 0,0 C 84 % 80 % 0 % 1013,8 hPa 0,0 l/m 0,3 km/h (0 Bft) O-SO 112 0 min 0,0 UV-I 13,7 C 14,2 C 0,0 km/h (0 Bft)
28.07.2010 03:40 16,4 C 19,8 C 17,6 C 15,7 C 14,2 C 0,0 C 84 % 80 % 0 % 1013,8 hPa 0,0 l/m 0,3 km/h (0 Bft) O-SO 112 0 min 0,0 UV-I 13,7 C 14,2 C 0,0 km/h (0 Bft)
28.07.2010 03:45 16,4 C 19,7 C 17,6 C 15,7 C 14,3 C 0,0 C 85 % 80 % 0 % 1013,8 hPa 0,0 l/m 0,8 km/h (0 Bft) S 180 0 min 0,0 UV-I 13,9 C 14,3 C 2,7 km/h (1 Bft)
28.07.2010 03:50 16,4 C 19,7 C 17,6 C 15,7 C 14,3 C 0,0 C 85 % 80 % 0 % 1013,8 hPa 0,0 l/m 0,8 km/h (0 Bft) S 180 0 min 0,0 UV-I 13,9 C 14,3 C 2,7 km/h (1 Bft)
28.07.2010 03:55 16,4 C 19,6 C 17,6 C 15,8 C 14,5 C 0,0 C 84 % 80 % 0 % 1013,8 hPa 0,0 l/m 0,6 km/h (0 Bft) S 180 0 min 0,0 UV-I 13,7 C 14,5 C 3,9 km/h (1 Bft)
28.07.2010 04:00 16,5 C 19,6 C 17,6 C 15,9 C 14,7 C 0,0 C 85 % 80 % 0 % 1013,8 hPa 0,0 l/m 0,6 km/h (0 Bft) S 180 0 min 0,0 UV-I 14,0 C 14,7 C 0,0 km/h (0 Bft)
28.07.2010 04:10 16,5 C 19,7 C 17,6 C 15,9 C 14,6 C 0,0 C 85 % 80 % 0 % 1013,8 hPa 0,0 l/m 0,3 km/h (0 Bft) S 180 0 min 0,0 UV-I 14,0 C 14,6 C 1,8 km/h (1 Bft)
28.07.2010 04:15 16,4 C 19,6 C 17,6 C 15,8 C 14,5 C 0,0 C 85 % 80 % 0 % 1013,6 hPa 0,0 l/m 0,6 km/h (0 Bft) S 180 0 min 0,0 UV-I 13,9 C 14,5 C 2,9 km/h (1 Bft)
28.07.2010 04:20 16,4 C 19,6 C 17,6 C 15,7 C 14,3 C 0,0 C 85 % 80 % 0 % 1013,6 hPa 0,0 l/m 0,5 km/h (0 Bft) W-SW 247 0 min 0,0 UV-I 13,9 C 14,3 C 0,0 km/h (0 Bft)
28.07.2010 04:25 16,4 C 19,6 C 17,6 C 15,7 C 14,3 C 0,0 C 85 % 80 % 0 % 1013,6 hPa 0,0 l/m 0,6 km/h (0 Bft) S-SW 202 0 min 0,0 UV-I 13,9 C 14,3 C 4,7 km/h (1 Bft)
28.07.2010 04:30 16,3 C 19,6 C 17,6 C 15,6 C 14,2 C 0,0 C 85 % 80 % 0 % 1013,6 hPa 0,0 l/m 1,0 km/h (0 Bft) S-SO 157 0 min 0,0 UV-I 13,8 C 14,2 C 3,7 km/h (1 Bft)
28.07.2010 04:35 16,2 C 19,6 C 17,6 C 15,5 C 14,2 C 0,0 C 85 % 80 % 0 % 1013,8 hPa 0,0 l/m 0,8 km/h (0 Bft) S-SO 157 0 min 0,0 UV-I 13,7 C 14,2 C 0,0 km/h (0 Bft)
28.07.2010 04:40 16,2 C 19,7 C 17,6 C 15,5 C 14,1 C 0,0 C 85 % 80 % 0 % 1013,8 hPa 0,0 l/m 0,3 km/h (0 Bft) O-SO 112 0 min 0,0 UV-I 13,7 C 14,1 C 0,0 km/h (0 Bft)
28.07.2010 04:45 16,3 C 19,7 C 17,6 C 15,5 C 14,0 C 0,0 C 85 % 80 % 0 % 1013,8 hPa 0,0 l/m 0,0 km/h (0 Bft) S 180 0 min 0,0 UV-I 13,8 C 14,0 C 0,0 km/h (0 Bft)
28.07.2010 04:50 16,2 C 19,7 C 17,6 C 15,5 C 14,0 C 0,0 C 85 % 80 % 0 % 1013,8 hPa 0,0 l/m 0,0 km/h (0 Bft) S 180 0 min 0,0 UV-I 13,7 C 14,0 C 0,0 km/h (0 Bft)
28.07.2010 04:55 16,1 C 19,6 C 17,6 C 15,4 C 14,1 C 0,0 C 85 % 80 % 0 % 1013,7 hPa 0,0 l/m 0,0 km/h (0 Bft) S 180 0 min 0,0 UV-I 13,6 C 14,1 C 0,0 km/h (0 Bft)
28.07.2010 05:00 16,3 C 19,5 C 17,6 C 15,6 C 14,2 C 0,0 C 86 % 80 % 0 % 1013,7 hPa 0,0 l/m 0,0 km/h (0 Bft) S-SW 202 0 min 0,0 UV-I 14,0 C 14,2 C 0,0 km/h (0 Bft)
28.07.2010 05:10 16,3 C 19,5 C 17,6 C 15,6 C 14,3 C 0,0 C 85 % 80 % 0 % 1013,7 hPa 0,0 l/m 0,2 km/h (0 Bft) W-SW 247 0 min 0,0 UV-I 13,8 C 14,3 C 0,0 km/h (0 Bft)
28.07.2010 05:15 16,2 C 19,5 C 17,6 C 15,6 C 14,4 C 0,0 C 86 % 80 % 0 % 1013,2 hPa 0,0 l/m 0,3 km/h (0 Bft) S-SO 157 0 min 0,0 UV-I 13,9 C 14,4 C 2,1 km/h (1 Bft)
28.07.2010 05:20 16,3 C 19,5 C 17,6 C 15,7 C 14,5 C 0,0 C 85 % 80 % 0 % 1013,2 hPa 0,0 l/m 0,5 km/h (0 Bft) N-NO 22 0 min 0,0 UV-I 13,8 C 14,5 C 1,8 km/h (1 Bft)
28.07.2010 05:25 16,3 C 19,5 C 17,6 C 15,7 C 14,5 C 0,0 C 85 % 80 % 0 % 1013,2 hPa 0,0 l/m 0,6 km/h (0 Bft) S-SW 202 0 min 0,0 UV-I 13,8 C 14,5 C 0,0 km/h (0 Bft)
28.07.2010 05:30 16,3 C 19,5 C 17,6 C 15,7 C 14,6 C 0,0 C 86 % 80 % 0 % 1013,2 hPa 0,0 l/m 0,5 km/h (0 Bft) S-SO 157 0 min 0,0 UV-I 14,0 C 14,6 C 3,5 km/h (1 Bft)
28.07.2010 05:35 16,3 C 19,5 C 17,6 C 15,7 C 14,5 C 0,0 C 86 % 80 % 0 % 1013,7 hPa 0,0 l/m 0,8 km/h (0 Bft) S 180 0 min 0,0 UV-I 14,0 C 14,5 C 1,9 km/h (1 Bft)
28.07.2010 05:40 16,3 C 19,6 C 17,6 C 15,6 C 14,3 C 0,0 C 86 % 80 % 0 % 1013,7 hPa 0,0 l/m 0,5 km/h (0 Bft) SO 135 0 min 0,0 UV-I 14,0 C 14,3 C 0,0 km/h (0 Bft)
28.07.2010 05:45 16,3 C 19,6 C 17,6 C 15,6 C 14,2 C 0,0 C 86 % 80 % 0 % 1013,7 hPa 0,0 l/m 0,3 km/h (0 Bft) S-SW 202 0 min 0,0 UV-I 14,0 C 14,2 C 0,0 km/h (0 Bft)
28.07.2010 05:50 16,2 C 19,6 C 17,6 C 15,5 C 14,0 C 0,0 C 85 % 80 % 0 % 1013,7 hPa 0,0 l/m 0,2 km/h (0 Bft) S 180 0 min 0,0 UV-I 13,7 C 14,0 C 0,0 km/h (0 Bft)
28.07.2010 05:55 16,1 C 19,6 C 17,6 C 15,4 C 13,9 C 0,0 C 85 % 80 % 0 % 1013,6 hPa 0,0 l/m 0,2 km/h (0 Bft) SW 225 0 min 0,0 UV-I 13,6 C 13,9 C 0,0 km/h (0 Bft)
28.07.2010 06:00 16,0 C 19,6 C 17,6 C 15,3 C 13,8 C 0,0 C 86 % 80 % 0 % 1013,6 hPa 0,0 l/m 0,0 km/h (0 Bft) SO 135 0 min 0,0 UV-I 13,7 C 13,8 C 0,0 km/h (0 Bft)
28.07.2010 06:10 16,0 C 19,7 C 17,6 C 15,2 C 13,7 C 0,0 C 86 % 80 % 0 % 1013,6 hPa 0,0 l/m 0,0 km/h (0 Bft) O-NO 67 0 min 0,0 UV-I 13,7 C 13,7 C 0,0 km/h (0 Bft)
28.07.2010 06:15 15,9 C 19,7 C 17,6 C 15,2 C 13,7 C 0,0 C 86 % 80 % 0 % 1013,6 hPa 0,0 l/m 0,0 km/h (0 Bft) O-NO 67 0 min 0,0 UV-I 13,6 C 13,7 C 0,0 km/h (0 Bft)
28.07.2010 06:20 16,0 C 19,7 C 17,6 C 15,2 C 13,7 C 0,0 C 86 % 80 % 0 % 1013,6 hPa 0,0 l/m 0,0 km/h (0 Bft) O-NO 67 0 min 0,0 UV-I 13,7 C 13,7 C 0,0 km/h (0 Bft)
28.07.2010 06:25 16,0 C 19,7 C 17,6 C 15,2 C 13,7 C 0,0 C 86 % 80 % 0 % 1013,6 hPa 0,0 l/m 0,0 km/h (0 Bft) S 180 0 min 0,0 UV-I 13,7 C 13,7 C 0,0 km/h (0 Bft)
28.07.2010 06:30 16,1 C 19,5 C 14,7 C 15,4 C 13,9 C 0,0 C 86 % 85 % 0 % 1013,6 hPa 0,0 l/m 0,5 km/h (0 Bft) S-SW 202 0 min 0,0 UV-I 13,8 C 13,9 C 0,0 km/h (0 Bft)
28.07.2010 06:35 16,2 C 19,4 C 14,8 C 15,5 C 14,1 C 0,0 C 86 % 85 % 0 % 1013,2 hPa 0,0 l/m 0,6 km/h (0 Bft) S-SW 202 0 min 0,0 UV-I 13,9 C 14,1 C 1,8 km/h (1 Bft)
28.07.2010 06:40 16,9 C 19,5 C 14,9 C 16,0 C 14,3 C 0,0 C 86 % 85 % 0 % 1013,2 hPa 0,0 l/m 0,2 km/h (0 Bft) SW 225 0 min 0,0 UV-I 14,5 C 14,3 C 0,0 km/h (0 Bft)
28.07.2010 06:45 16,9 C 19,4 C 15,1 C 16,1 C 14,5 C 0,0 C 85 % 85 % 0 % 1013,2 hPa 0,0 l/m 0,2 km/h (0 Bft) S 180 0 min 0,0 UV-I 14,4 C 14,5 C 0,0 km/h (0 Bft)
28.07.2010 06:50 16,9 C 19,4 C 15,1 C 16,2 C 14,8 C 0,0 C 85 % 85 % 0 % 1013,2 hPa 0,0 l/m 0,3 km/h (0 Bft) SW 225 0 min 0,0 UV-I 14,4 C 14,8 C 1,9 km/h (1 Bft)
28.07.2010 06:55 17,1 C 19,4 C 15,3 C 16,4 C 15,0 C 0,0 C 84 % 85 % 0 % 1013,6 hPa 0,0 l/m 0,8 km/h (0 Bft) S-SO 157 0 min 0,0 UV-I 14,4 C 15,0 C 0,0 km/h (0 Bft)
28.07.2010 07:00 17,5 C 19,4 C 15,3 C 16,9 C 15,6 C 0,0 C 84 % 85 % 0 % 1013,6 hPa 0,0 l/m 1,0 km/h (0 Bft) S 180 0 min 0,0 UV-I 14,8 C 15,6 C 0,0 km/h (0 Bft)
28.07.2010 07:10 18,9 C 19,4 C 15,4 C 19,0 C 19,0 C 0,1 C 80 % 84 % 3 % 1013,6 hPa 0,0 l/m 0,8 km/h (0 Bft) NO 45 0 min 0,0 UV-I 15,4 C 19,0 C 0,0 km/h (0 Bft)
28.07.2010 07:15 19,1 C 19,3 C 15,5 C 19,7 C 19,7 C 0,6 C 80 % 84 % 16 % 1013,4 hPa 0,0 l/m 0,8 km/h (0 Bft) SW 225 0 min 0,0 UV-I 15,6 C 19,7 C 0,0 km/h (0 Bft)
28.07.2010 07:20 19,0 C 19,3 C 15,5 C 20,6 C 20,6 C 1,6 C 79 % 84 % 42 % 1013,4 hPa 0,0 l/m 1,0 km/h (0 Bft) S 180 0 min 0,0 UV-I 15,3 C 20,6 C 2,7 km/h (1 Bft)
28.07.2010 07:25 19,1 C 19,3 C 15,6 C 21,1 C 21,1 C 2,0 C 79 % 84 % 53 % 1013,4 hPa 0,0 l/m 1,3 km/h (1 Bft) S-SW 202 0 min 0,0 UV-I 15,4 C 21,1 C 1,9 km/h (1 Bft)
28.07.2010 07:30 18,8 C 19,3 C 15,9 C 21,7 C 21,7 C 2,9 C 79 % 84 % 76 % 1013,4 hPa 0,0 l/m 1,4 km/h (1 Bft) SW 225 5 min 0,0 UV-I 15,1 C 21,7 C 2,1 km/h (1 Bft)
28.07.2010 07:35 18,7 C 19,3 C 15,9 C 22,0 C 22,0 C 3,3 C 79 % 84 % 87 % 1013,4 hPa 0,0 l/m 1,1 km/h (1 Bft) S 180 5 min 0,1 UV-I 15,0 C 22,0 C 3,5 km/h (1 Bft)
28.07.2010 07:40 19,1 C 19,3 C 15,9 C 22,5 C 22,5 C 3,4 C 78 % 83 % 89 % 1013,4 hPa 0,0 l/m 1,0 km/h (0 Bft) S 180 5 min 0,1 UV-I 15,2 C 22,5 C 0,0 km/h (0 Bft)
28.07.2010 07:45 18,8 C 19,3 C 16,0 C 22,7 C 22,7 C 3,9 C 79 % 83 % 100 % 1013,4 hPa 0,0 l/m 1,1 km/h (1 Bft) S-SW 202 5 min 0,1 UV-I 15,1 C 22,7 C 5,0 km/h (1 Bft)
28.07.2010 07:50 18,8 C 19,2 C 16,1 C 23,0 C 23,0 C 4,2 C 79 % 83 % 100 % 1013,4 hPa 0,0 l/m 1,6 km/h (1 Bft) S 180 5 min 0,1 UV-I 15,1 C 23,0 C 4,5 km/h (1 Bft)
28.07.2010 07:55 18,8 C 19,2 C 16,3 C 23,0 C 23,0 C 4,2 C 78 % 81 % 100 % 1012,8 hPa 0,0 l/m 2,9 km/h (1 Bft) S 180 5 min 0,1 UV-I 14,9 C 23,0 C 11,1 km/h (2 Bft)
28.07.2010 08:00 18,9 C 19,2 C 16,5 C 23,1 C 23,1 C 4,2 C 78 % 81 % 100 % 1012,8 hPa 0,0 l/m 4,2 km/h (1 Bft) SW 225 5 min 0,2 UV-I 15,0 C 23,1 C 5,3 km/h (1 Bft)
28.07.2010 08:10 18,7 C 19,3 C 16,6 C 20,8 C 20,8 C 2,1 C 78 % 78 % 55 % 1012,8 hPa 0,0 l/m 5,6 km/h (1 Bft) SW 225 0 min 0,2 UV-I 14,8 C 20,8 C 11,1 km/h (2 Bft)
28.07.2010 08:15 18,7 C 19,2 C 16,7 C 20,5 C 20,5 C 1,8 C 77 % 77 % 47 % 1013,2 hPa 0,0 l/m 6,0 km/h (2 Bft) S-SW 202 0 min 0,2 UV-I 14,6 C 20,5 C 6,4 km/h (2 Bft)
28.07.2010 08:20 18,7 C 19,2 C 16,8 C 20,1 C 20,1 C 1,4 C 77 % 76 % 37 % 1013,2 hPa 0,0 l/m 6,3 km/h (2 Bft) S 180 0 min 0,3 UV-I 14,6 C 20,1 C 4,5 km/h (1 Bft)
28.07.2010 08:25 18,7 C 19,1 C 17,0 C 20,2 C 20,2 C 1,5 C 77 % 75 % 39 % 1013,2 hPa 0,0 l/m 5,8 km/h (2 Bft) S-SW 202 0 min 0,3 UV-I 14,6 C 20,2 C 11,7 km/h (2 Bft)
28.07.2010 08:30 18,9 C 19,1 C 17,1 C 20,4 C 20,4 C 1,5 C 77 % 75 % 39 % 1013,2 hPa 0,0 l/m 5,3 km/h (1 Bft) S 180 0 min 0,4 UV-I 14,8 C 20,4 C 3,5 km/h (1 Bft)
28.07.2010 08:35 18,7 C 19,1 C 17,0 C 20,2 C 20,2 C 1,5 C 77 % 75 % 39 % 1013,2 hPa 0,0 l/m 4,8 km/h (1 Bft) S-SW 202 0 min 0,4 UV-I 14,6 C 20,2 C 6,6 km/h (2 Bft)
28.07.2010 08:40 18,6 C 19,1 C 17,1 C 19,7 C 19,7 C 1,1 C 77 % 75 % 29 % 1013,2 hPa 0,0 l/m 4,0 km/h (1 Bft) S-SO 157 0 min 0,4 UV-I 14,5 C 19,7 C 4,2 km/h (1 Bft)
28.07.2010 08:45 18,7 C 19,1 C 17,1 C 19,5 C 19,5 C 0,8 C 77 % 74 % 21 % 1013,2 hPa 0,0 l/m 4,3 km/h (1 Bft) S-SW 202 0 min 0,4 UV-I 14,6 C 19,5 C 5,0 km/h (1 Bft)
28.07.2010 08:50 18,7 C 19,2 C 17,1 C 19,4 C 19,4 C 0,7 C 77 % 74 % 18 % 1013,2 hPa 0,0 l/m 3,9 km/h (1 Bft) S-SW 202 0 min 0,4 UV-I 14,6 C 19,4 C 3,5 km/h (1 Bft)
28.07.2010 08:55 18,7 C 19,2 C 17,1 C 19,8 C 19,8 C 1,1 C 77 % 75 % 29 % 1013,2 hPa 0,0 l/m 2,9 km/h (1 Bft) SW 225 0 min 0,5 UV-I 14,6 C 19,8 C 1,8 km/h (1 Bft)
28.07.2010 09:00 19,1 C 19,1 C 17,4 C 21,7 C 21,7 C 2,6 C 77 % 75 % 68 % 1013,2 hPa 0,0 l/m 3,1 km/h (1 Bft) W 270 0 min 0,6 UV-I 15,0 C 21,7 C 5,5 km/h (1 Bft)
28.07.2010 09:08 19,2 C 19,1 C 17,7 C 23,0 C 23,0 C 3,8 C 76 % 75 % 100 % 1013,2 hPa 0,0 l/m 4,3 km/h (1 Bft) SW 225 8 min 0,7 UV-I 14,9 C 23,0 C 6,1 km/h (2 Bft)
28.07.2010 09:10 19,2 C 19,1 C 17,9 C 23,1 C 23,1 C 3,9 C 76 % 73 % 100 % 1013,2 hPa 0,0 l/m 5,0 km/h (1 Bft) SW 225 2 min 0,8 UV-I 14,9 C 23,1 C 6,3 km/h (2 Bft)
28.07.2010 09:15 19,2 C 19,1 C 17,9 C 22,2 C 22,2 C 3,0 C 75 % 73 % 79 % 1012,3 hPa 0,0 l/m 5,0 km/h (1 Bft) S-SW 202 0 min 0,7 UV-I 14,7 C 22,2 C 4,0 km/h (1 Bft)
28.07.2010 09:20 19,2 C 19,1 C 17,9 C 21,7 C 21,7 C 2,5 C 75 % 73 % 66 % 1012,3 hPa 0,0 l/m 4,3 km/h (1 Bft) W-SW 247 0 min 0,7 UV-I 14,7 C 21,7 C 9,8 km/h (2 Bft)
28.07.2010 09:25 19,3 C 19,1 C 17,9 C 21,7 C 21,7 C 2,4 C 74 % 73 % 63 % 1012,3 hPa 0,0 l/m 4,2 km/h (1 Bft) W 270 0 min 0,8 UV-I 14,5 C 21,7 C 13,8 km/h (3 Bft)
28.07.2010 09:30 19,5 C 19,1 C 18,0 C 23,3 C 23,3 C 3,8 C 74 % 70 % 100 % 1012,3 hPa 0,0 l/m 4,7 km/h (1 Bft) S-SW 202 5 min 0,9 UV-I 14,7 C 23,3 C 4,5 km/h (1 Bft)
28.07.2010 09:35 19,6 C 19,1 C 18,2 C 24,3 C 24,3 C 4,7 C 74 % 72 % 100 % 1012,8 hPa 0,0 l/m 4,2 km/h (1 Bft) S 180 5 min 1,0 UV-I 14,8 C 24,3 C 9,5 km/h (2 Bft)
28.07.2010 09:40 19,7 C 19,1 C 18,5 C 25,1 C 25,1 C 5,4 C 73 % 71 % 100 % 1012,8 hPa 0,0 l/m 3,7 km/h (1 Bft) SW 225 5 min 1,0 UV-I 14,7 C 25,1 C 7,6 km/h (2 Bft)
28.07.2010 09:45 19,8 C 19,1 C 18,5 C 25,3 C 25,3 C 5,5 C 73 % 69 % 100 % 1012,8 hPa 0,0 l/m 4,2 km/h (1 Bft) W 270 5 min 0,9 UV-I 14,8 C 25,3 C 4,5 km/h (1 Bft)
28.07.2010 09:50 20,1 C 19,1 C 18,6 C 25,5 C 25,5 C 5,4 C 73 % 68 % 100 % 1012,8 hPa 0,0 l/m 4,5 km/h (1 Bft) S 180 5 min 0,9 UV-I 15,1 C 25,5 C 3,7 km/h (1 Bft)
28.07.2010 09:55 20,1 C 19,1 C 18,7 C 25,7 C 25,7 C 5,6 C 72 % 68 % 100 % 1012,4 hPa 0,0 l/m 4,2 km/h (1 Bft) W-SW 247 5 min 0,9 UV-I 14,9 C 25,7 C 6,3 km/h (2 Bft)
28.07.2010 10:00 20,2 C 19,1 C 18,9 C 24,9 C 24,9 C 4,7 C 70 % 64 % 100 % 1012,4 hPa 0,0 l/m 5,0 km/h (1 Bft) S-SO 157 5 min 1,0 UV-I 14,5 C 24,9 C 9,3 km/h (2 Bft)
28.07.2010 10:08 20,3 C 19,1 C 19,0 C 24,0 C 24,0 C 3,7 C 70 % 64 % 97 % 1012,4 hPa 0,0 l/m 5,1 km/h (1 Bft) SW 225 8 min 1,0 UV-I 14,6 C 24,0 C 10,9 km/h (2 Bft)
28.07.2010 10:10 20,5 C 19,1 C 19,3 C 23,5 C 23,5 C 3,0 C 69 % 63 % 79 % 1012,4 hPa 0,0 l/m 6,9 km/h (2 Bft) W-SW 247 0 min 1,0 UV-I 14,6 C 23,5 C 8,7 km/h (2 Bft)
28.07.2010 10:15 20,5 C 19,1 C 19,3 C 24,0 C 24,0 C 3,5 C 69 % 63 % 92 % 1012,5 hPa 0,0 l/m 7,6 km/h (2 Bft) SW 225 5 min 1,1 UV-I 14,6 C 24,0 C 14,8 km/h (3 Bft)
28.07.2010 10:20 20,5 C 19,1 C 19,5 C 24,7 C 24,7 C 4,2 C 68 % 62 % 100 % 1012,5 hPa 0,0 l/m 6,3 km/h (2 Bft) S 180 5 min 1,1 UV-I 14,4 C 24,7 C 6,3 km/h (2 Bft)
28.07.2010 10:25 20,7 C 19,1 C 19,5 C 24,6 C 24,6 C 3,9 C 68 % 61 % 100 % 1012,5 hPa 0,0 l/m 6,6 km/h (2 Bft) W-SW 247 5 min 1,1 UV-I 14,6 C 24,6 C 5,5 km/h (1 Bft)
28.07.2010 10:30 20,8 C 19,1 C 19,9 C 25,0 C 25,0 C 4,2 C 67 % 59 % 100 % 1012,5 hPa 0,0 l/m 5,3 km/h (1 Bft) SO 135 5 min 1,4 UV-I 14,4 C 25,0 C 1,8 km/h (1 Bft)
28.07.2010 10:35 20,8 C 19,1 C 19,9 C 25,7 C 25,7 C 4,9 C 67 % 61 % 100 % 1011,8 hPa 0,0 l/m 4,7 km/h (1 Bft) W-NW 292 5 min 1,6 UV-I 14,4 C 25,7 C 5,0 km/h (1 Bft)
28.07.2010 10:40 21,1 C 19,1 C 19,9 C 25,4 C 25,4 C 4,3 C 65 % 58 % 100 % 1011,8 hPa 0,0 l/m 6,3 km/h (2 Bft) W-SW 247 5 min 1,6 UV-I 14,3 C 25,4 C 9,2 km/h (2 Bft)
28.07.2010 10:45 21,0 C 19,1 C 20,0 C 25,1 C 25,1 C 4,1 C 65 % 58 % 100 % 1011,8 hPa 0,0 l/m 7,9 km/h (2 Bft) W-SW 247 5 min 1,4 UV-I 14,2 C 25,1 C 15,9 km/h (3 Bft)
28.07.2010 10:50 21,5 C 19,0 C 20,2 C 25,7 C 25,7 C 4,2 C 65 % 60 % 100 % 1011,8 hPa 0,0 l/m 7,6 km/h (2 Bft) SW 225 5 min 1,4 UV-I 14,6 C 25,7 C 15,0 km/h (3 Bft)
28.07.2010 10:55 21,6 C 19,0 C 20,3 C 26,2 C 26,2 C 4,6 C 64 % 59 % 100 % 1012,2 hPa 0,0 l/m 6,9 km/h (2 Bft) W 270 5 min 1,4 UV-I 14,5 C 26,2 C 12,9 km/h (3 Bft)
28.07.2010 11:00 21,5 C 19,0 C 20,3 C 24,8 C 24,8 C 3,3 C 64 % 60 % 87 % 1012,2 hPa 0,0 l/m 6,1 km/h (2 Bft) W-SW 247 5 min 1,4 UV-I 14,4 C 24,8 C 7,1 km/h (2 Bft)
28.07.2010 11:08 21,5 C 19,0 C 20,2 C 24,5 C 24,5 C 3,0 C 64 % 58 % 79 % 1012,2 hPa 0,0 l/m 5,6 km/h (1 Bft) SW 225 0 min 1,4 UV-I 14,4 C 24,5 C 10,6 km/h (2 Bft)
28.07.2010 11:10 21,7 C 19,0 C 20,3 C 23,8 C 23,8 C 2,1 C 64 % 58 % 55 % 1012,2 hPa 0,0 l/m 7,1 km/h (2 Bft) S-SO 157 0 min 1,3 UV-I 14,6 C 23,8 C 9,5 km/h (2 Bft)
28.07.2010 11:15 22,0 C 19,1 C 20,4 C 25,0 C 25,0 C 3,0 C 63 % 59 % 79 % 1011,8 hPa 0,0 l/m 8,2 km/h (2 Bft) W-SW 247 0 min 1,6 UV-I 14,6 C 25,0 C 18,3 km/h (3 Bft)
28.07.2010 11:20 22,1 C 19,1 C 20,7 C 25,8 C 25,8 C 3,7 C 62 % 58 % 97 % 1011,8 hPa 0,0 l/m 7,4 km/h (2 Bft) S-SW 202 5 min 1,6 UV-I 14,5 C 25,8 C 5,3 km/h (1 Bft)
28.07.2010 11:25 22,2 C 19,1 C 21,0 C 26,4 C 26,4 C 4,2 C 61 % 55 % 100 % 1011,8 hPa 0,0 l/m 6,6 km/h (2 Bft) SW 225 5 min 1,7 UV-I 14,3 C 26,4 C 6,3 km/h (2 Bft)
28.07.2010 11:30 22,3 C 19,0 C 21,2 C 26,7 C 26,7 C 4,4 C 61 % 55 % 100 % 1011,8 hPa 0,0 l/m 7,6 km/h (2 Bft) SW 225 5 min 1,8 UV-I 14,4 C 26,7 C 9,8 km/h (2 Bft)
28.07.2010 11:35 22,3 C 19,1 C 21,2 C 25,8 C 25,8 C 3,5 C 60 % 56 % 92 % 1011,4 hPa 0,0 l/m 8,4 km/h (2 Bft) SW 225 5 min 1,6 UV-I 14,2 C 25,8 C 18,5 km/h (3 Bft)
28.07.2010 11:40 22,4 C 19,0 C 21,2 C 26,3 C 26,3 C 3,9 C 59 % 54 % 100 % 1011,4 hPa 0,0 l/m 6,3 km/h (2 Bft) O-NO 67 5 min 1,8 UV-I 14,0 C 26,3 C 2,7 km/h (1 Bft)
28.07.2010 11:45 22,3 C 19,1 C 21,1 C 25,6 C 25,6 C 3,3 C 60 % 54 % 87 % 1011,4 hPa 0,0 l/m 6,3 km/h (2 Bft) S 180 5 min 1,3 UV-I 14,2 C 25,6 C 13,7 km/h (3 Bft)
28.07.2010 11:50 22,5 C 19,0 C 21,2 C 25,4 C 25,4 C 2,9 C 60 % 56 % 76 % 1011,4 hPa 0,0 l/m 6,8 km/h (2 Bft) SW 225 0 min 1,5 UV-I 14,3 C 25,4 C 9,7 km/h (2 Bft)
28.07.2010 11:55 22,4 C 19,0 C 21,5 C 25,6 C 25,6 C 3,2 C 59 % 54 % 84 % 1011,3 hPa 0,0 l/m 7,9 km/h (2 Bft) S 180 0 min 1,5 UV-I 14,0 C 25,6 C 9,3 km/h (2 Bft)
28.07.2010 12:00 22,4 C 19,0 C 21,3 C 25,0 C 25,0 C 2,6 C 57 % 51 % 68 % 1011,3 hPa 0,0 l/m 7,2 km/h (2 Bft) SO 135 0 min 1,7 UV-I 13,5 C 25,0 C 8,2 km/h (2 Bft)
28.07.2010 12:08 22,4 C 19,0 C 21,4 C 25,0 C 25,0 C 2,6 C 57 % 52 % 68 % 1011,3 hPa 0,0 l/m 6,4 km/h (2 Bft) SW 225 0 min 1,7 UV-I 13,5 C 25,0 C 8,7 km/h (2 Bft)
28.07.2010 12:10 22,4 C 19,1 C 21,2 C 24,9 C 24,9 C 2,5 C 58 % 52 % 66 % 1011,3 hPa 0,0 l/m 5,6 km/h (1 Bft) SW 225 0 min 1,7 UV-I 13,7 C 24,9 C 2,9 km/h (1 Bft)
28.07.2010 12:15 22,6 C 19,1 C 21,3 C 25,0 C 25,0 C 2,4 C 58 % 54 % 63 % 1011,1 hPa 0,0 l/m 5,6 km/h (1 Bft) W 270 0 min 1,8 UV-I 13,9 C 25,0 C 2,6 km/h (1 Bft)
28.07.2010 12:20 22,9 C 19,1 C 21,5 C 25,6 C 25,6 C 2,7 C 57 % 52 % 71 % 1011,1 hPa 0,0 l/m 5,6 km/h (1 Bft) W-SW 247 0 min 2,4 UV-I 13,9 C 25,6 C 3,9 km/h (1 Bft)
28.07.2010 12:25 22,9 C 19,1 C 21,7 C 26,3 C 26,3 C 3,4 C 57 % 52 % 89 % 1011,1 hPa 0,0 l/m 6,3 km/h (2 Bft) W-SW 247 5 min 3,1 UV-I 13,9 C 26,3 C 3,1 km/h (1 Bft)
28.07.2010 12:30 22,8 C 19,1 C 21,7 C 26,0 C 26,0 C 3,2 C 57 % 52 % 84 % 1011,1 hPa 0,0 l/m 5,5 km/h (1 Bft) S 180 0 min 2,3 UV-I 13,8 C 26,0 C 7,1 km/h (2 Bft)
28.07.2010 12:35 22,9 C 19,1 C 21,6 C 25,4 C 25,4 C 2,5 C 55 % 52 % 66 % 1011,0 hPa 0,0 l/m 5,5 km/h (1 Bft) S-SO 157 0 min 1,3 UV-I 13,4 C 25,4 C 11,3 km/h (2 Bft)
28.07.2010 12:40 23,1 C 19,1 C 21,9 C 25,6 C 25,6 C 2,5 C 56 % 51 % 66 % 1011,0 hPa 0,0 l/m 6,1 km/h (2 Bft) W 270 0 min 1,9 UV-I 13,8 C 25,6 C 11,4 km/h (2 Bft)
28.07.2010 12:45 23,2 C 19,1 C 22,1 C 26,3 C 26,3 C 3,1 C 56 % 51 % 82 % 1011,0 hPa 0,0 l/m 7,1 km/h (2 Bft) W-SW 247 0 min 3,1 UV-I 13,9 C 26,3 C 9,2 km/h (2 Bft)
28.07.2010 12:50 22,8 C 19,1 C 22,0 C 25,9 C 25,9 C 3,1 C 57 % 50 % 82 % 1011,0 hPa 0,0 l/m 7,4 km/h (2 Bft) W-SW 247 0 min 3,1 UV-I 13,8 C 25,9 C 8,2 km/h (2 Bft)
28.07.2010 12:55 22,7 C 19,1 C 21,8 C 25,0 C 25,0 C 2,3 C 58 % 51 % 61 % 1010,6 hPa 0,0 l/m 6,9 km/h (2 Bft) S 180 0 min 1,1 UV-I 14,0 C 25,0 C 12,7 km/h (3 Bft)
28.07.2010 13:00 22,4 C 19,2 C 21,5 C 23,7 C 23,7 C 1,3 C 58 % 51 % 34 % 1010,6 hPa 0,0 l/m 7,4 km/h (2 Bft) W-SW 247 0 min 0,8 UV-I 13,7 C 23,7 C 7,7 km/h (2 Bft)
28.07.2010 13:08 22,3 C 19,2 C 21,3 C 23,2 C 23,2 C 0,9 C 59 % 53 % 24 % 1010,6 hPa 0,0 l/m 7,4 km/h (2 Bft) SW 225 0 min 0,4 UV-I 13,9 C 23,2 C 8,7 km/h (2 Bft)
28.07.2010 13:10 22,1 C 19,2 C 21,0 C 22,4 C 22,4 C 0,3 C 59 % 53 % 8 % 1010,6 hPa 0,0 l/m 8,0 km/h (2 Bft) S-SW 202 0 min 0,2 UV-I 13,7 C 22,4 C 15,3 km/h (3 Bft)
28.07.2010 13:15 22,0 C 19,2 C 20,9 C 22,1 C 22,1 C 0,1 C 60 % 54 % 3 % 1010,5 hPa 0,0 l/m 8,2 km/h (2 Bft) SW 225 0 min 0,2 UV-I 13,9 C 22,1 C 8,7 km/h (2 Bft)
28.07.2010 13:20 21,9 C 19,2 C 20,9 C 21,9 C 21,9 C 0,0 C 60 % 54 % 0 % 1010,5 hPa 0,0 l/m 8,7 km/h (2 Bft) W-SW 247 0 min 0,3 UV-I 13,8 C 21,9 C 12,7 km/h (3 Bft)
28.07.2010 13:25 21,9 C 19,2 C 20,9 C 21,9 C 21,9 C 0,0 C 60 % 55 % 0 % 1010,5 hPa 0,0 l/m 9,7 km/h (2 Bft) O-SO 112 0 min 0,3 UV-I 13,8 C 21,9 C 9,3 km/h (2 Bft)
28.07.2010 13:30 21,9 C 19,2 C 20,9 C 21,9 C 21,9 C 0,0 C 61 % 54 % 0 % 1010,5 hPa 0,0 l/m 8,5 km/h (2 Bft) W-SW 247 0 min 0,4 UV-I 14,0 C 21,9 C 9,5 km/h (2 Bft)
28.07.2010 13:35 21,9 C 19,2 C 20,9 C 22,2 C 22,2 C 0,3 C 61 % 54 % 8 % 1010,8 hPa 0,0 l/m 6,9 km/h (2 Bft) SW 225 0 min 0,9 UV-I 14,0 C 22,2 C 6,1 km/h (2 Bft)
28.07.2010 13:40 22,0 C 19,2 C 21,0 C 22,6 C 22,6 C 0,6 C 62 % 56 % 16 % 1010,8 hPa 0,0 l/m 6,6 km/h (2 Bft) S 180 0 min 1,1 UV-I 14,4 C 22,6 C 6,0 km/h (2 Bft)
28.07.2010 13:45 22,1 C 19,2 C 21,1 C 22,9 C 22,9 C 0,8 C 62 % 55 % 21 % 1010,8 hPa 0,0 l/m 6,1 km/h (2 Bft) W 270 0 min 1,1 UV-I 14,5 C 22,9 C 7,2 km/h (2 Bft)
28.07.2010 13:50 21,9 C 19,3 C 21,0 C 23,1 C 23,1 C 1,2 C 62 % 55 % 32 % 1010,8 hPa 0,0 l/m 6,1 km/h (2 Bft) W-SW 247 0 min 1,2 UV-I 14,3 C 23,1 C 15,1 km/h (3 Bft)
28.07.2010 13:55 21,9 C 19,3 C 21,0 C 22,8 C 22,8 C 0,9 C 62 % 55 % 24 % 1010,8 hPa 0,0 l/m 7,9 km/h (2 Bft) S-SW 202 0 min 0,5 UV-I 14,3 C 22,8 C 12,6 km/h (3 Bft)
28.07.2010 14:00 21,7 C 19,3 C 20,8 C 22,2 C 22,2 C 0,5 C 63 % 56 % 13 % 1010,8 hPa 0,0 l/m 9,8 km/h (2 Bft) S 180 0 min 0,5 UV-I 14,3 C 22,2 C 10,8 km/h (2 Bft)
28.07.2010 14:08 21,7 C 19,3 C 20,8 C 22,0 C 22,0 C 0,3 C 64 % 56 % 8 % 1010,8 hPa 0,0 l/m 9,5 km/h (2 Bft) W-SW 247 0 min 0,8 UV-I 14,6 C 22,0 C 21,6 km/h (4 Bft)
28.07.2010 14:10 21,6 C 19,3 C 20,5 C 21,8 C 21,8 C 0,2 C 66 % 58 % 5 % 1010,8 hPa 0,0 l/m 9,3 km/h (2 Bft) SW 225 0 min 0,8 UV-I 15,0 C 21,8 C 9,3 km/h (2 Bft)
28.07.2010 14:15 21,6 C 19,3 C 20,4 C 21,7 C 21,7 C 0,1 C 66 % 59 % 3 % 1010,9 hPa 0,0 l/m 9,0 km/h (2 Bft) W-SW 247 0 min 1,1 UV-I 15,0 C 21,7 C 22,0 km/h (4 Bft)
28.07.2010 14:20 21,4 C 19,3 C 20,3 C 21,6 C 21,6 C 0,2 C 67 % 60 % 5 % 1010,9 hPa 0,0 l/m 9,8 km/h (2 Bft) S 180 0 min 1,4 UV-I 15,0 C 21,6 C 9,0 km/h (2 Bft)
28.07.2010 14:25 21,5 C 19,3 C 20,2 C 21,5 C 21,5 C 0,0 C 68 % 62 % 0 % 1010,9 hPa 0,0 l/m 8,9 km/h (2 Bft) S-SW 202 0 min 1,4 UV-I 15,3 C 21,5 C 10,3 km/h (2 Bft)
28.07.2010 14:30 21,2 C 19,3 C 20,1 C 21,4 C 21,4 C 0,2 C 69 % 62 % 5 % 1010,9 hPa 0,0 l/m 7,2 km/h (2 Bft) SW 225 0 min 1,2 UV-I 15,3 C 21,4 C 10,1 km/h (2 Bft)
28.07.2010 14:35 21,2 C 19,3 C 20,0 C 21,3 C 21,3 C 0,1 C 68 % 62 % 3 % 1010,5 hPa 0,0 l/m 8,2 km/h (2 Bft) S 180 0 min 1,0 UV-I 15,1 C 21,3 C 10,6 km/h (2 Bft)
28.07.2010 14:40 21,1 C 19,4 C 19,9 C 21,1 C 21,1 C 0,0 C 69 % 62 % 0 % 1010,5 hPa 0,0 l/m 8,5 km/h (2 Bft) S-SW 202 0 min 1,0 UV-I 15,2 C 21,1 C 5,8 km/h (2 Bft)
28.07.2010 14:45 21,1 C 19,4 C 19,9 C 21,1 C 21,0 C 0,0 C 69 % 62 % 0 % 1010,5 hPa 0,0 l/m 8,0 km/h (2 Bft) SW 225 0 min 0,8 UV-I 15,2 C 21,0 C 7,4 km/h (2 Bft)
28.07.2010 14:50 21,0 C 19,4 C 19,8 C 21,0 C 21,0 C 0,0 C 69 % 62 % 0 % 1010,5 hPa 0,0 l/m 7,6 km/h (2 Bft) SW 225 0 min 0,9 UV-I 15,1 C 21,0 C 17,1 km/h (3 Bft)
28.07.2010 14:55 21,0 C 19,4 C 19,9 C 21,0 C 21,0 C 0,0 C 69 % 63 % 0 % 1010,8 hPa 0,0 l/m 8,0 km/h (2 Bft) S 180 0 min 0,8 UV-I 15,1 C 21,0 C 9,8 km/h (2 Bft)
28.07.2010 15:00 21,1 C 19,4 C 19,8 C 21,2 C 21,2 C 0,1 C 69 % 63 % 3 % 1010,8 hPa 0,0 l/m 10,0 km/h (2 Bft) SW 225 0 min 1,1 UV-I 15,2 C 21,2 C 15,8 km/h (3 Bft)
28.07.2010 15:08 21,1 C 19,4 C 19,8 C 21,3 C 21,3 C 0,2 C 69 % 63 % 5 % 1010,8 hPa 0,0 l/m 9,5 km/h (2 Bft) S-SW 202 0 min 1,3 UV-I 15,2 C 21,3 C 13,4 km/h (3 Bft)
28.07.2010 15:10 21,0 C 19,4 C 19,9 C 21,5 C 21,5 C 0,5 C 69 % 63 % 13 % 1010,8 hPa 0,0 l/m 8,7 km/h (2 Bft) SW 225 0 min 1,3 UV-I 15,1 C 21,5 C 14,6 km/h (3 Bft)
28.07.2010 15:15 21,0 C 19,4 C 19,8 C 21,5 C 21,5 C 0,5 C 69 % 62 % 13 % 1010,7 hPa 0,0 l/m 9,5 km/h (2 Bft) SW 225 0 min 1,2 UV-I 15,1 C 21,5 C 13,2 km/h (3 Bft)
28.07.2010 15:20 21,0 C 19,4 C 19,9 C 21,4 C 21,4 C 0,4 C 69 % 63 % 11 % 1010,7 hPa 0,0 l/m 8,7 km/h (2 Bft) SO 135 0 min 1,0 UV-I 15,1 C 21,4 C 7,4 km/h (2 Bft)
28.07.2010 15:25 21,1 C 19,4 C 19,9 C 21,3 C 21,3 C 0,2 C 69 % 63 % 5 % 1010,7 hPa 0,0 l/m 8,4 km/h (2 Bft) SW 225 0 min 0,8 UV-I 15,2 C 21,3 C 17,7 km/h (3 Bft)
28.07.2010 15:30 21,1 C 19,4 C 19,7 C 21,1 C 21,1 C 0,0 C 68 % 63 % 0 % 1010,7 hPa 0,0 l/m 10,6 km/h (2 Bft) SW 225 0 min 0,8 UV-I 15,0 C 21,1 C 21,2 km/h (4 Bft)
28.07.2010 15:35 21,1 C 19,4 C 19,7 C 21,1 C 21,1 C 0,0 C 69 % 63 % 0 % 1010,4 hPa 0,0 l/m 11,1 km/h (2 Bft) S-SO 157 0 min 0,9 UV-I 15,2 C 21,1 C 22,5 km/h (4 Bft)
28.07.2010 15:40 21,3 C 19,3 C 19,9 C 21,9 C 21,9 C 0,6 C 69 % 63 % 16 % 1010,4 hPa 0,0 l/m 9,3 km/h (2 Bft) SW 225 0 min 1,6 UV-I 15,4 C 21,9 C 9,0 km/h (2 Bft)
28.07.2010 15:45 21,4 C 19,3 C 19,9 C 22,5 C 22,5 C 1,1 C 68 % 63 % 29 % 1010,4 hPa 0,0 l/m 9,0 km/h (2 Bft) W-NW 292 0 min 1,8 UV-I 15,2 C 22,5 C 10,3 km/h (2 Bft)
28.07.2010 15:50 21,7 C 19,3 C 20,6 C 23,1 C 23,1 C 1,4 C 68 % 61 % 37 % 1010,4 hPa 0,0 l/m 8,9 km/h (2 Bft) W-SW 247 0 min 2,1 UV-I 15,5 C 23,1 C 10,5 km/h (2 Bft)
28.07.2010 15:55 21,6 C 19,3 C 20,6 C 22,9 C 22,9 C 1,3 C 68 % 61 % 34 % 1010,0 hPa 0,0 l/m 10,0 km/h (2 Bft) S 180 0 min 1,8 UV-I 15,4 C 22,9 C 17,2 km/h (3 Bft)
28.07.2010 16:00 21,4 C 19,3 C 20,5 C 22,4 C 22,4 C 1,0 C 68 % 61 % 26 % 1010,0 hPa 0,0 l/m 9,8 km/h (2 Bft) W-SW 247 0 min 1,3 UV-I 15,2 C 22,4 C 5,3 km/h (1 Bft)
28.07.2010 16:08 21,5 C 19,4 C 20,5 C 22,4 C 22,4 C 0,9 C 69 % 61 % 24 % 1010,0 hPa 0,0 l/m 9,0 km/h (2 Bft) O-SO 112 0 min 1,4 UV-I 15,6 C 22,4 C 20,1 km/h (4 Bft)
28.07.2010 16:09 21,5 C 19,4 C 20,5 C 22,4 C 22,4 C 0,9 C 69 % 61 % 24 % 1010,0 hPa 0,0 l/m 9,0 km/h (2 Bft) O-SO 112 0 min 1,4 UV-I 15,6 C 22,4 C 20,1 km/h (4 Bft)
28.07.2010 16:10 21,2 C 19,3 C 20,5 C 22,3 C 22,3 C 1,1 C 69 % 61 % 29 % 1010,0 hPa 0,0 l/m 7,7 km/h (2 Bft) W-NW 292 0 min 1,5 UV-I 15,3 C 22,3 C 12,6 km/h (3 Bft)
28.07.2010 16:11 21,2 C 19,3 C 20,5 C 22,3 C 22,3 C 1,1 C 69 % 61 % 29 % 1010,0 hPa 0,0 l/m 7,7 km/h (2 Bft) W-NW 292 0 min 1,5 UV-I 15,3 C 22,3 C 12,6 km/h (3 Bft)
28.07.2010 16:15 21,1 C 19,3 C 20,5 C 21,7 C 21,7 C 0,6 C 69 % 61 % 16 % 1010,4 hPa 0,0 l/m 8,7 km/h (2 Bft) S 180 0 min 0,8 UV-I 15,2 C 21,7 C 10,5 km/h (2 Bft)
28.07.2010 16:20 20,9 C 19,4 C 20,5 C 20,9 C 20,9 C 0,0 C 70 % 61 % 0 % 1010,4 hPa 0,0 l/m 11,3 km/h (2 Bft) S-SO 157 0 min 0,8 UV-I 15,2 C 20,9 C 15,9 km/h (3 Bft)
28.07.2010 16:25 20,8 C 19,4 C 20,5 C 20,7 C 20,6 C 0,0 C 71 % 61 % 0 % 1010,4 hPa 0,0 l/m 10,6 km/h (2 Bft) S 180 0 min 0,6 UV-I 15,3 C 20,6 C 8,5 km/h (2 Bft)
28.07.2010 16:30 20,8 C 19,4 C 20,5 C 20,6 C 20,3 C 0,0 C 71 % 61 % 0 % 1010,4 hPa 0,0 l/m 8,9 km/h (2 Bft) W-SW 247 0 min 0,6 UV-I 15,3 C 20,3 C 4,5 km/h (1 Bft)
28.07.2010 16:35 20,7 C 19,5 C 20,5 C 20,6 C 20,3 C 0,0 C 71 % 61 % 0 % 1010,2 hPa 0,0 l/m 6,9 km/h (2 Bft) NO 45 0 min 0,5 UV-I 15,2 C 20,3 C 2,9 km/h (1 Bft)
28.07.2010 16:40 20,7 C 19,5 C 20,5 C 20,5 C 20,2 C 0,0 C 72 % 61 % 0 % 1010,2 hPa 0,0 l/m 5,5 km/h (1 Bft) S 180 0 min 0,4 UV-I 15,5 C 20,2 C 6,4 km/h (2 Bft)
28.07.2010 16:45 20,6 C 19,5 C 20,5 C 20,4 C 20,1 C 0,0 C 72 % 61 % 0 % 1010,2 hPa 0,0 l/m 6,3 km/h (2 Bft) SW 225 0 min 0,4 UV-I 15,4 C 20,1 C 6,8 km/h (2 Bft)
28.07.2010 16:50 20,5 C 19,5 C 20,5 C 20,4 C 20,1 C 0,0 C 72 % 61 % 0 % 1010,2 hPa 0,0 l/m 6,8 km/h (2 Bft) SW 225 0 min 0,4 UV-I 15,3 C 20,1 C 9,0 km/h (2 Bft)
28.07.2010 16:55 20,5 C 19,5 C 20,5 C 20,3 C 20,0 C 0,0 C 73 % 61 % 0 % 1009,9 hPa 0,0 l/m 6,6 km/h (2 Bft) W-SW 247 0 min 0,2 UV-I 15,5 C 20,0 C 8,7 km/h (2 Bft)
28.07.2010 17:00 20,5 C 19,5 C 20,5 C 20,3 C 19,8 C 0,0 C 73 % 61 % 0 % 1009,9 hPa 0,0 l/m 5,8 km/h (2 Bft) SW 225 0 min 0,2 UV-I 15,5 C 19,8 C 3,9 km/h (1 Bft)
28.07.2010 17:08 20,5 C 19,5 C 20,5 C 20,3 C 19,8 C 0,0 C 73 % 61 % 0 % 1009,9 hPa 0,0 l/m 5,3 km/h (1 Bft) SW 225 0 min 0,2 UV-I 15,5 C 19,8 C 9,0 km/h (2 Bft)
28.07.2010 17:09 20,5 C 19,5 C 20,5 C 20,3 C 19,8 C 0,0 C 73 % 61 % 0 % 1009,9 hPa 0,0 l/m 5,3 km/h (1 Bft) SW 225 0 min 0,2 UV-I 15,5 C 19,8 C 9,0 km/h (2 Bft)
28.07.2010 17:10 20,4 C 19,5 C 20,5 C 20,2 C 19,9 C 0,0 C 74 % 61 % 0 % 1009,9 hPa 0,0 l/m 5,0 km/h (1 Bft) S-SW 202 0 min 0,1 UV-I 15,6 C 19,9 C 5,1 km/h (1 Bft)
28.07.2010 17:15 20,5 C 19,5 C 20,5 C 20,3 C 20,0 C 0,0 C 74 % 61 % 0 % 1009,2 hPa 0,0 l/m 5,1 km/h (1 Bft) S 180 0 min 0,2 UV-I 15,7 C 20,0 C 7,2 km/h (2 Bft)
28.07.2010 17:20 20,4 C 19,5 C 20,5 C 20,3 C 20,2 C 0,0 C 73 % 61 % 0 % 1009,2 hPa 0,0 l/m 4,3 km/h (1 Bft) S 180 0 min 0,2 UV-I 15,4 C 20,2 C 6,3 km/h (2 Bft)
28.07.2010 17:25 20,5 C 19,5 C 20,5 C 20,4 C 20,3 C 0,0 C 74 % 61 % 0 % 1009,2 hPa 0,0 l/m 4,3 km/h (1 Bft) SW 225 0 min 0,3 UV-I 15,7 C 20,3 C 5,6 km/h (1 Bft)
28.07.2010 17:30 20,7 C 19,5 C 20,5 C 20,8 C 20,8 C 0,1 C 73 % 61 % 3 % 1009,2 hPa 0,0 l/m 4,0 km/h (1 Bft) SW 225 0 min 0,4 UV-I 15,7 C 20,8 C 4,5 km/h (1 Bft)
28.07.2010 17:35 20,6 C 19,5 C 20,5 C 20,9 C 20,9 C 0,3 C 73 % 61 % 8 % 1009,3 hPa 0,0 l/m 4,3 km/h (1 Bft) SW 225 0 min 0,3 UV-I 15,6 C 20,9 C 5,1 km/h (1 Bft)
28.07.2010 17:40 20,5 C 19,5 C 20,5 C 20,7 C 20,7 C 0,2 C 73 % 61 % 5 % 1009,3 hPa 0,0 l/m 5,1 km/h (1 Bft) S 180 0 min 0,1 UV-I 15,5 C 20,7 C 8,2 km/h (2 Bft)
28.07.2010 17:45 20,5 C 19,5 C 20,5 C 20,5 C 20,5 C 0,0 C 72 % 61 % 0 % 1009,3 hPa 0,0 l/m 5,3 km/h (1 Bft) S 180 0 min 0,0 UV-I 15,3 C 20,5 C 7,7 km/h (2 Bft)
28.07.2010 17:50 20,5 C 19,5 C 20,5 C 20,4 C 20,3 C 0,0 C 73 % 61 % 0 % 1009,3 hPa 0,0 l/m 6,0 km/h (2 Bft) W-SW 247 0 min 0,0 UV-I 15,5 C 20,3 C 4,3 km/h (1 Bft)
28.07.2010 17:55 20,4 C 19,5 C 19,5 C 20,4 C 20,3 C 0,0 C 73 % 65 % 0 % 1009,3 hPa 0,0 l/m 5,8 km/h (2 Bft) S-SW 202 0 min 0,1 UV-I 15,4 C 20,3 C 6,8 km/h (2 Bft)
28.07.2010 18:00 20,5 C 19,5 C 19,5 C 20,4 C 20,2 C 0,0 C 73 % 65 % 0 % 1009,3 hPa 0,0 l/m 5,1 km/h (1 Bft) W-SW 247 0 min 0,0 UV-I 15,5 C 20,2 C 6,8 km/h (2 Bft)
28.07.2010 18:08 20,4 C 19,5 C 19,5 C 20,3 C 20,2 C 0,0 C 73 % 65 % 0 % 1009,3 hPa 0,0 l/m 5,3 km/h (1 Bft) S-SW 202 0 min 0,0 UV-I 15,4 C 20,2 C 5,3 km/h (1 Bft)
28.07.2010 18:09 20,4 C 19,5 C 19,5 C 20,3 C 20,2 C 0,0 C 73 % 65 % 0 % 1009,3 hPa 0,0 l/m 5,3 km/h (1 Bft) S-SW 202 0 min 0,0 UV-I 15,4 C 20,2 C 5,3 km/h (1 Bft)
28.07.2010 18:10 20,4 C 19,5 C 19,5 C 20,3 C 20,1 C 0,0 C 72 % 65 % 0 % 1009,3 hPa 0,0 l/m 4,8 km/h (1 Bft) N-NO 22 0 min 0,0 UV-I 15,2 C 20,1 C 4,0 km/h (1 Bft)
28.07.2010 18:15 20,4 C 19,5 C 19,5 C 20,3 C 20,1 C 0,0 C 73 % 65 % 0 % 1009,0 hPa 0,0 l/m 5,5 km/h (1 Bft) SW 225 0 min 0,0 UV-I 15,4 C 20,1 C 10,0 km/h (2 Bft)
28.07.2010 18:20 20,4 C 19,5 C 19,5 C 20,3 C 20,1 C 0,0 C 73 % 65 % 0 % 1009,0 hPa 0,0 l/m 4,7 km/h (1 Bft) W-SW 247 0 min 0,0 UV-I 15,4 C 20,1 C 5,0 km/h (1 Bft)
28.07.2010 18:25 20,4 C 19,5 C 19,5 C 20,3 C 20,2 C 0,0 C 73 % 65 % 0 % 1009,0 hPa 0,0 l/m 4,8 km/h (1 Bft) W-SW 247 0 min 0,0 UV-I 15,4 C 20,2 C 3,5 km/h (1 Bft)
28.07.2010 18:30 20,4 C 19,6 C 19,5 C 20,3 C 20,1 C 0,0 C 73 % 65 % 0 % 1009,0 hPa 0,0 l/m 5,6 km/h (1 Bft) W 270 0 min 0,0 UV-I 15,4 C 20,1 C 4,5 km/h (1 Bft)
28.07.2010 18:35 20,3 C 19,6 C 19,5 C 20,0 C 19,5 C 0,0 C 74 % 65 % 0 % 1008,5 hPa 0,0 l/m 5,8 km/h (2 Bft) S-SW 202 0 min 0,0 UV-I 15,5 C 19,5 C 7,7 km/h (2 Bft)
28.07.2010 18:40 20,1 C 19,6 C 19,5 C 19,5 C 18,4 C 0,0 C 76 % 65 % 0 % 1008,5 hPa 0,7 l/m 6,3 km/h (2 Bft) SW 225 0 min 0,0 UV-I 15,7 C 18,4 C 13,0 km/h (3 Bft)
28.07.2010 18:45 19,9 C 19,7 C 19,5 C 19,3 C 18,0 C 0,0 C 78 % 65 % 0 % 1008,5 hPa 0,0 l/m 6,3 km/h (2 Bft) W-SW 247 0 min 0,0 UV-I 15,9 C 18,0 C 7,1 km/h (2 Bft)
28.07.2010 18:50 19,6 C 19,8 C 19,5 C 18,9 C 17,4 C 0,0 C 80 % 65 % 0 % 1008,5 hPa 0,0 l/m 5,8 km/h (2 Bft) NW 315 0 min 0,0 UV-I 16,1 C 17,4 C 0,0 km/h (0 Bft)
28.07.2010 18:55 19,5 C 19,8 C 19,5 C 18,8 C 17,3 C 0,0 C 81 % 65 % 0 % 1008,9 hPa 0,0 l/m 3,9 km/h (1 Bft) NO 45 0 min 0,0 UV-I 16,1 C 17,3 C 0,0 km/h (0 Bft)
28.07.2010 19:00 19,4 C 19,8 C 19,5 C 18,7 C 17,3 C 0,0 C 81 % 65 % 0 % 1008,9 hPa 0,0 l/m 0,8 km/h (0 Bft) S-SW 202 0 min 0,0 UV-I 16,1 C 17,3 C 0,0 km/h (0 Bft)
28.07.2010 19:08 19,5 C 19,8 C 19,5 C 18,8 C 17,3 C 0,0 C 82 % 65 % 0 % 1008,9 hPa 0,0 l/m 0,2 km/h (0 Bft) S-SW 202 0 min 0,0 UV-I 16,3 C 17,3 C 0,0 km/h (0 Bft)
28.07.2010 19:09 19,5 C 19,8 C 19,5 C 18,8 C 17,3 C 0,0 C 82 % 65 % 0 % 1008,9 hPa 0,0 l/m 0,2 km/h (0 Bft) S-SW 202 0 min 0,0 UV-I 16,3 C 17,3 C 0,0 km/h (0 Bft)
28.07.2010 19:10 19,4 C 19,7 C 19,5 C 18,7 C 17,3 C 0,0 C 82 % 65 % 0 % 1008,9 hPa 0,0 l/m 1,0 km/h (0 Bft) S 180 0 min 0,0 UV-I 16,2 C 17,3 C 2,9 km/h (1 Bft)
28.07.2010 19:11 19,4 C 19,7 C 19,5 C 18,7 C 17,3 C 0,0 C 82 % 65 % 0 % 1008,9 hPa 0,0 l/m 1,0 km/h (0 Bft) S 180 0 min 0,0 UV-I 16,2 C 17,3 C 2,9 km/h (1 Bft)
28.07.2010 19:15 19,3 C 19,7 C 19,5 C 18,7 C 17,4 C 0,0 C 83 % 65 % 0 % 1009,2 hPa 0,0 l/m 2,1 km/h (1 Bft) W-SW 247 0 min 0,0 UV-I 16,3 C 17,4 C 8,2 km/h (2 Bft)
28.07.2010 19:20 19,2 C 19,7 C 19,5 C 18,6 C 17,3 C 0,0 C 82 % 65 % 0 % 1009,2 hPa 0,0 l/m 3,7 km/h (1 Bft) SW 225 0 min 0,0 UV-I 16,0 C 17,3 C 3,9 km/h (1 Bft)
28.07.2010 19:25 19,2 C 19,7 C 19,5 C 18,6 C 17,3 C 0,0 C 82 % 65 % 0 % 1009,2 hPa 0,0 l/m 4,7 km/h (1 Bft) S-SW 202 0 min 0,0 UV-I 16,0 C 17,3 C 3,9 km/h (1 Bft)
28.07.2010 19:30 19,1 C 19,7 C 19,5 C 18,5 C 17,2 C 0,0 C 82 % 65 % 0 % 1009,2 hPa 0,0 l/m 4,8 km/h (1 Bft) W-SW 247 0 min 0,0 UV-I 16,0 C 17,2 C 10,5 km/h (2 Bft)
28.07.2010 19:35 19,0 C 19,7 C 19,5 C 18,4 C 17,1 C 0,0 C 82 % 65 % 0 % 1009,2 hPa 0,0 l/m 5,3 km/h (1 Bft) S-SW 202 0 min 0,0 UV-I 15,9 C 17,1 C 9,3 km/h (2 Bft)
28.07.2010 19:40 18,8 C 19,7 C 19,5 C 18,2 C 17,1 C 0,0 C 82 % 65 % 0 % 1009,2 hPa 0,0 l/m 6,0 km/h (2 Bft) W 270 0 min 0,0 UV-I 15,7 C 17,1 C 5,8 km/h (2 Bft)
28.07.2010 19:45 18,8 C 19,7 C 19,5 C 18,2 C 17,1 C 0,0 C 82 % 65 % 0 % 1009,2 hPa 0,0 l/m 5,6 km/h (1 Bft) W-SW 247 0 min 0,0 UV-I 15,7 C 17,1 C 8,4 km/h (2 Bft)
28.07.2010 19:50 18,7 C 19,7 C 19,5 C 18,2 C 17,1 C 0,0 C 82 % 65 % 0 % 1009,2 hPa 0,0 l/m 5,5 km/h (1 Bft) W-SW 247 0 min 0,0 UV-I 15,6 C 17,1 C 2,1 km/h (1 Bft)
28.07.2010 19:55 18,7 C 19,7 C 19,5 C 18,2 C 17,1 C 0,0 C 82 % 65 % 0 % 1009,1 hPa 0,0 l/m 5,3 km/h (1 Bft) W-SW 247 0 min 0,0 UV-I 15,6 C 17,1 C 4,0 km/h (1 Bft)
28.07.2010 20:00 18,6 C 19,7 C 19,5 C 18,1 C 17,0 C 0,0 C 82 % 65 % 0 % 1009,1 hPa 0,0 l/m 4,7 km/h (1 Bft) N 360 0 min 0,0 UV-I 15,5 C 17,0 C 7,9 km/h (2 Bft)
28.07.2010 20:08 18,7 C 19,7 C 19,5 C 18,1 C 17,0 C 0,0 C 82 % 65 % 0 % 1009,1 hPa 0,0 l/m 4,8 km/h (1 Bft) N 0 0 min 0,0 UV-I 15,6 C 17,0 C 5,0 km/h (1 Bft)
28.07.2010 20:10 18,6 C 19,7 C 19,5 C 18,0 C 16,9 C 0,0 C 83 % 65 % 0 % 1009,1 hPa 0,0 l/m 5,6 km/h (1 Bft) S 180 0 min 0,0 UV-I 15,7 C 16,9 C 10,6 km/h (2 Bft)
28.07.2010 20:15 18,5 C 19,7 C 19,5 C 18,0 C 16,9 C 0,0 C 83 % 65 % 0 % 1009,7 hPa 0,0 l/m 5,6 km/h (1 Bft) W-SW 247 0 min 0,0 UV-I 15,6 C 16,9 C 3,9 km/h (1 Bft)
28.07.2010 20:20 18,4 C 19,7 C 19,5 C 17,9 C 16,8 C 0,0 C 83 % 65 % 0 % 1009,7 hPa 0,0 l/m 5,8 km/h (2 Bft) S-SW 202 0 min 0,0 UV-I 15,5 C 16,8 C 5,8 km/h (2 Bft)
28.07.2010 20:25 18,5 C 19,7 C 19,5 C 17,9 C 16,8 C 0,0 C 84 % 65 % 0 % 1009,7 hPa 0,0 l/m 5,3 km/h (1 Bft) SW 225 0 min 0,0 UV-I 15,7 C 16,8 C 9,7 km/h (2 Bft)
28.07.2010 20:30 18,4 C 19,8 C 19,5 C 17,8 C 16,6 C 0,0 C 84 % 65 % 0 % 1009,7 hPa 0,7 l/m 5,1 km/h (1 Bft) W-SW 247 0 min 0,0 UV-I 15,6 C 16,6 C 4,8 km/h (1 Bft)
28.07.2010 20:35 18,3 C 19,9 C 16,5 C 17,7 C 16,5 C 0,0 C 84 % 84 % 0 % 1009,7 hPa 0,0 l/m 4,3 km/h (1 Bft) S 180 0 min 0,0 UV-I 15,5 C 16,5 C 3,5 km/h (1 Bft)
28.07.2010 20:40 18,3 C 19,9 C 16,5 C 17,7 C 16,4 C 0,0 C 85 % 84 % 0 % 1009,7 hPa 0,0 l/m 3,7 km/h (1 Bft) SW 225 0 min 0,0 UV-I 15,7 C 16,4 C 3,9 km/h (1 Bft)
28.07.2010 20:45 18,3 C 19,9 C 16,5 C 17,7 C 16,4 C 0,0 C 85 % 85 % 0 % 1009,7 hPa 0,0 l/m 3,9 km/h (1 Bft) SW 225 0 min 0,0 UV-I 15,7 C 16,4 C 5,8 km/h (2 Bft)
28.07.2010 20:50 18,3 C 19,9 C 16,5 C 17,6 C 16,3 C 0,0 C 85 % 85 % 0 % 1009,7 hPa 0,0 l/m 3,4 km/h (1 Bft) W-SW 247 0 min 0,0 UV-I 15,7 C 16,3 C 5,1 km/h (1 Bft)
28.07.2010 20:55 18,3 C 19,9 C 16,4 C 17,6 C 16,3 C 0,0 C 85 % 85 % 0 % 1009,8 hPa 0,0 l/m 3,4 km/h (1 Bft) SW 225 0 min 0,0 UV-I 15,7 C 16,3 C 5,3 km/h (1 Bft)
28.07.2010 21:00 18,1 C 19,8 C 16,4 C 17,5 C 16,3 C 0,0 C 85 % 85 % 0 % 1009,8 hPa 0,0 l/m 3,1 km/h (1 Bft) SW 225 0 min 0,0 UV-I 15,5 C 16,3 C 3,1 km/h (1 Bft)
28.07.2010 21:08 18,1 C 19,9 C 16,4 C 17,5 C 16,2 C 0,0 C 85 % 85 % 0 % 1009,8 hPa 0,0 l/m 2,6 km/h (1 Bft) SW 225 0 min 0,0 UV-I 15,5 C 16,2 C 0,0 km/h (0 Bft)
28.07.2010 21:09 18,1 C 19,9 C 16,4 C 17,5 C 16,2 C 0,0 C 85 % 85 % 0 % 1009,8 hPa 0,0 l/m 2,6 km/h (1 Bft) SW 225 0 min 0,0 UV-I 15,5 C 16,2 C 0,0 km/h (0 Bft)
28.07.2010 21:10 18,0 C 19,9 C 16,4 C 17,4 C 16,2 C 0,0 C 85 % 85 % 0 % 1009,8 hPa 0,0 l/m 2,3 km/h (1 Bft) W-SW 247 0 min 0,0 UV-I 15,4 C 16,2 C 1,8 km/h (1 Bft)
28.07.2010 21:15 18,0 C 19,9 C 16,5 C 17,4 C 16,2 C 0,0 C 86 % 85 % 0 % 1009,8 hPa 0,0 l/m 2,3 km/h (1 Bft) S-SW 202 0 min 0,0 UV-I 15,6 C 16,2 C 3,4 km/h (1 Bft)
28.07.2010 21:20 18,1 C 19,9 C 16,4 C 17,4 C 16,1 C 0,0 C 86 % 85 % 0 % 1009,8 hPa 0,0 l/m 1,4 km/h (1 Bft) W-SW 247 0 min 0,0 UV-I 15,7 C 16,1 C 1,8 km/h (1 Bft)
28.07.2010 21:25 18,0 C 20,0 C 16,4 C 17,4 C 16,1 C 0,0 C 86 % 85 % 0 % 1009,8 hPa 0,0 l/m 0,8 km/h (0 Bft) SW 225 0 min 0,0 UV-I 15,6 C 16,1 C 0,0 km/h (0 Bft)
28.07.2010 21:30 17,9 C 19,9 C 16,5 C 17,3 C 16,1 C 0,0 C 87 % 85 % 0 % 1009,8 hPa 0,0 l/m 0,3 km/h (0 Bft) N 360 0 min 0,0 UV-I 15,7 C 16,1 C 0,0 km/h (0 Bft)
28.07.2010 21:35 17,9 C 19,9 C 16,5 C 17,3 C 16,1 C 0,0 C 87 % 85 % 0 % 1009,8 hPa 0,0 l/m 0,6 km/h (0 Bft) SW 225 0 min 0,0 UV-I 15,7 C 16,1 C 2,1 km/h (1 Bft)
28.07.2010 21:40 17,9 C 19,9 C 16,5 C 17,3 C 16,2 C 0,0 C 87 % 85 % 0 % 1009,8 hPa 0,0 l/m 0,6 km/h (0 Bft) W 270 0 min 0,0 UV-I 15,7 C 16,2 C 0,0 km/h (0 Bft)
28.07.2010 21:45 17,9 C 20,0 C 16,5 C 17,3 C 16,2 C 0,0 C 87 % 85 % 0 % 1009,8 hPa 0,0 l/m 0,3 km/h (0 Bft) SW 225 0 min 0,0 UV-I 15,7 C 16,2 C 2,4 km/h (1 Bft)
28.07.2010 21:50 17,9 C 20,0 C 16,6 C 17,4 C 16,3 C 0,0 C 87 % 85 % 0 % 1009,8 hPa 0,0 l/m 0,5 km/h (0 Bft) SW 225 0 min 0,0 UV-I 15,7 C 16,3 C 0,0 km/h (0 Bft)
28.07.2010 21:55 17,9 C 20,0 C 16,6 C 17,3 C 16,2 C 0,0 C 87 % 85 % 0 % 1009,5 hPa 0,0 l/m 1,0 km/h (0 Bft) SW 225 0 min 0,0 UV-I 15,7 C 16,2 C 3,2 km/h (1 Bft)
28.07.2010 22:00 17,8 C 20,0 C 16,5 C 17,2 C 16,1 C 0,0 C 87 % 85 % 0 % 1009,5 hPa 0,0 l/m 1,0 km/h (0 Bft) SW 225 0 min 0,0 UV-I 15,6 C 16,1 C 0,0 km/h (0 Bft)
28.07.2010 22:08 17,9 C 20,0 C 16,5 C 17,3 C 16,1 C 0,0 C 87 % 85 % 0 % 1009,5 hPa 0,0 l/m 1,1 km/h (1 Bft) S 180 0 min 0,0 UV-I 15,7 C 16,1 C 2,7 km/h (1 Bft)
28.07.2010 22:09 17,9 C 20,0 C 16,5 C 17,3 C 16,1 C 0,0 C 87 % 85 % 0 % 1009,5 hPa 0,0 l/m 1,1 km/h (1 Bft) S 180 0 min 0,0 UV-I 15,7 C 16,1 C 2,7 km/h (1 Bft)
28.07.2010 22:10 17,9 C 19,9 C 16,5 C 17,3 C 16,1 C 0,0 C 87 % 85 % 0 % 1009,5 hPa 0,0 l/m 1,9 km/h (1 Bft) W-SW 247 0 min 0,0 UV-I 15,7 C 16,1 C 2,7 km/h (1 Bft)
28.07.2010 22:15 17,9 C 19,9 C 16,5 C 17,3 C 16,1 C 0,0 C 87 % 85 % 0 % 1009,6 hPa 0,0 l/m 2,1 km/h (1 Bft) W-SW 247 0 min 0,0 UV-I 15,7 C 16,1 C 2,9 km/h (1 Bft)
28.07.2010 22:20 17,9 C 19,9 C 16,4 C 17,2 C 15,9 C 0,0 C 87 % 85 % 0 % 1009,6 hPa 0,0 l/m 1,4 km/h (1 Bft) S-SW 202 0 min 0,0 UV-I 15,7 C 15,9 C 2,3 km/h (1 Bft)
28.07.2010 22:25 17,7 C 19,9 C 16,4 C 17,1 C 15,9 C 0,0 C 87 % 85 % 0 % 1009,6 hPa 0,0 l/m 1,1 km/h (1 Bft) S 180 0 min 0,0 UV-I 15,5 C 15,9 C 2,7 km/h (1 Bft)
28.07.2010 22:30 17,7 C 19,9 C 16,4 C 17,1 C 15,9 C 0,0 C 87 % 85 % 0 % 1009,6 hPa 0,0 l/m 1,6 km/h (1 Bft) S 180 0 min 0,0 UV-I 15,5 C 15,9 C 3,4 km/h (1 Bft)
28.07.2010 22:35 17,7 C 19,9 C 16,4 C 17,1 C 15,9 C 0,0 C 88 % 85 % 0 % 1009,6 hPa 0,0 l/m 1,9 km/h (1 Bft) S-SW 202 0 min 0,0 UV-I 15,7 C 15,9 C 1,9 km/h (1 Bft)
28.07.2010 22:40 17,7 C 20,0 C 16,5 C 17,0 C 15,7 C 0,0 C 87 % 85 % 0 % 1009,6 hPa 0,0 l/m 1,1 km/h (1 Bft) W-SW 247 0 min 0,0 UV-I 15,5 C 15,7 C 1,8 km/h (1 Bft)
28.07.2010 22:45 17,6 C 20,0 C 16,4 C 17,0 C 15,7 C 0,0 C 87 % 85 % 0 % 1009,6 hPa 0,0 l/m 0,5 km/h (0 Bft) W 270 0 min 0,0 UV-I 15,4 C 15,7 C 0,0 km/h (0 Bft)
28.07.2010 22:50 17,4 C 20,0 C 16,2 C 16,8 C 15,5 C 0,0 C 87 % 85 % 0 % 1009,6 hPa 0,0 l/m 0,3 km/h (0 Bft) W 270 0 min 0,0 UV-I 15,2 C 15,5 C 0,0 km/h (0 Bft)
28.07.2010 22:55 17,3 C 20,0 C 16,1 C 16,7 C 15,4 C 0,0 C 87 % 85 % 0 % 1009,5 hPa 0,0 l/m 0,0 km/h (0 Bft) W 270 0 min 0,0 UV-I 15,1 C 15,4 C 0,0 km/h (0 Bft)
28.07.2010 23:00 17,3 C 20,0 C 16,1 C 16,7 C 15,4 C 0,0 C 88 % 85 % 0 % 1009,5 hPa 0,0 l/m 0,3 km/h (0 Bft) W 270 0 min 0,0 UV-I 15,3 C 15,4 C 0,0 km/h (0 Bft)
28.07.2010 23:08 17,3 C 20,0 C 16,1 C 16,6 C 15,2 C 0,0 C 88 % 85 % 0 % 1009,5 hPa 0,0 l/m 0,3 km/h (0 Bft) S-SW 202 0 min 0,0 UV-I 15,3 C 15,2 C 1,9 km/h (1 Bft)
28.07.2010 23:09 17,3 C 20,0 C 16,1 C 16,6 C 15,2 C 0,0 C 88 % 85 % 0 % 1009,5 hPa 0,0 l/m 0,3 km/h (0 Bft) S-SW 202 0 min 0,0 UV-I 15,3 C 15,2 C 1,9 km/h (1 Bft)
28.07.2010 23:10 17,3 C 19,9 C 16,1 C 16,6 C 15,3 C 0,0 C 88 % 85 % 0 % 1009,5 hPa 0,0 l/m 0,8 km/h (0 Bft) S 180 0 min 0,0 UV-I 15,3 C 15,3 C 0,0 km/h (0 Bft)
28.07.2010 23:11 17,3 C 19,9 C 16,1 C 16,6 C 15,3 C 0,0 C 88 % 85 % 0 % 1009,5 hPa 0,0 l/m 0,8 km/h (0 Bft) S 180 0 min 0,0 UV-I 15,3 C 15,3 C 0,0 km/h (0 Bft)
28.07.2010 23:12 17,3 C 19,9 C 16,1 C 16,6 C 15,3 C 0,0 C 88 % 85 % 0 % 1009,5 hPa 0,0 l/m 0,8 km/h (0 Bft) S 180 0 min 0,0 UV-I 15,3 C 15,3 C 0,0 km/h (0 Bft)
28.07.2010 23:14 17,3 C 19,9 C 16,1 C 16,6 C 15,3 C 0,0 C 88 % 85 % 0 % 1009,5 hPa 0,0 l/m 0,8 km/h (0 Bft) S 180 0 min 0,0 UV-I 15,3 C 15,3 C 0,0 km/h (0 Bft)
28.07.2010 23:25 17,1 C 20,0 C 16,0 C 16,4 C 15,0 C 0,0 C 88 % 85 % 0 % 1009,4 hPa 0,0 l/m 0,3 km/h (0 Bft) O-NO 67 0 min 0,0 UV-I 15,1 C 15,0 C 0,0 km/h (0 Bft)
28.07.2010 23:30 17,0 C 19,9 C 15,9 C 16,3 C 15,0 C 0,0 C 88 % 85 % 0 % 1009,4 hPa 0,0 l/m 0,2 km/h (0 Bft) W-NW 292 0 min 0,0 UV-I 15,0 C 15,0 C 0,0 km/h (0 Bft)
28.07.2010 23:35 17,0 C 20,0 C 15,9 C 16,3 C 15,0 C 0,0 C 88 % 85 % 0 % 1009,4 hPa 0,0 l/m 0,3 km/h (0 Bft) SO 135 0 min 0,0 UV-I 15,0 C 15,0 C 0,0 km/h (0 Bft)
28.07.2010 23:40 17,1 C 19,9 C 15,8 C 16,4 C 14,9 C 0,0 C 88 % 86 % 0 % 1009,4 hPa 0,0 l/m 0,3 km/h (0 Bft) S 180 0 min 0,0 UV-I 15,1 C 14,9 C 0,0 km/h (0 Bft)
28.07.2010 23:45 16,8 C 19,9 C 15,7 C 16,2 C 14,9 C 0,0 C 88 % 86 % 0 % 1009,4 hPa 0,0 l/m 0,2 km/h (0 Bft) SO 135 0 min 0,0 UV-I 14,8 C 14,9 C 0,0 km/h (0 Bft)
28.07.2010 23:50 16,8 C 19,9 C 15,6 C 16,2 C 15,0 C 0,0 C 88 % 86 % 0 % 1009,4 hPa 0,0 l/m 0,0 km/h (0 Bft) O 90 0 min 0,0 UV-I 14,8 C 15,0 C 0,0 km/h (0 Bft)
28.07.2010 23:55 16,8 C 19,9 C 15,6 C 16,2 C 14,9 C 0,0 C 88 % 86 % 0 % 1009,2 hPa 0,0 l/m 0,0 km/h (0 Bft) O 90 0 min 0,0 UV-I 14,8 C 14,9 C 0,0 km/h (0 Bft)
_ Min-Zeit 06:15 10:50 06:30 06:10 02:10 00:00 12:35 12:50 00:00 18:35 - 00:00 - - - 00:00 12:35 02:10 00:00
Minimum _ 15,9 C 19,0 C 14,7 C 15,2 C 13,6 C 0,0 C 55 % 50 % 0 % 1008,5 hPa - 0,0 km/h (0 Bft) - - - 0,0 UV-I 13,4 C 13,6 C 0,0 km/h (0 Bft)
_ Max-Zeit 12:45 00:00 12:45 11:30 11:30 09:55 22:35 23:40 07:45 00:40 18:40 16:20 - - 09:08 12:25 19:08 11:30 15:35
Maximum _ 23,2 C 20,3 C 22,1 C 26,7 C 26,7 C 5,6 C 88 % 86 % 100 % 1014,6 hPa 0,7 l/m 11,3 km/h
S-SO (2 Bft)
- - 8 min 3,1 UV-I 16,3 C 26,7 C 22,5 km/h
S-SO (4 Bft)
Durchschnitt _ 19,0 C 19,6 C 18,5 C 19,4 C 18,7 C 0,8 C 77 % 72 % 20 % 1011,7 hPa #1,4 l/m 3,7 km/h (1 Bft) SW - #2:53 h 1,0 UV-I 14,7 C 18,7 C 5,1 km/h (1 Bft)
2010 www.wetterstation-wechselburg.de